Regional Weather Roundup
Issued by NWS

Home | Current Version | Previous Version | Graphics & Text | Print | Product List | Glossary Off
Versions: 1 2 3 4 5 6 7 8 9 10 11 12 13 14 15 16 17 18 19 20 21 22 23 24 25 26 27

000
ASUS43 KDMX 172007
RWRIA

WEATHER ROUNDUP FOR IOWA
NATIONAL WEATHER SERVICE DES MOINES IA
300 PM CDT THU APR 17 2014

NOTE: "FAIR" INDICATES FEW OR NO CLOUDS BELOW 12,000 FEET WITH NO
SIGNIFICANT WEATHER AND/OR OBSTRUCTIONS TO VISIBILITY.

* - THESE STATIONS ARE NOT NWS STATIONS...THUS NOT UNDER NWS
QUALITY CONTROL.  THEY ALSO DO NOT REPORT WEATHER SUCH
AS PRECIPITATION OR FOG.

IAZ001>003-012>014-020>022-031>034-043>046-172100-
   NORTHWEST IOWA

CITY           SKY/WX    TMP DP  RH WIND       PRES   REMARKS
CARROLL *      SUNNY     48  27  43 VRB6G15   30.27S
CHEROKEE *     SUNNY     50  28  43 N5        30.29F
DENISON *      SUNNY     48  27  43 NW12      30.26F
LE MARS *      SUNNY     46  25  42 VRB3G12   30.29F
ORANGE CITY *  SUNNY     46  25  42 NE3       30.29F
SHELDON *      SUNNY     43  27  52 VRB5G12   30.28F
SIOUX CITY     SUNNY     49  24  37 CALM      30.29F
SPENCER        MOSUNNY   44  28  53 W6        30.30S
STORM LAKE *   SUNNY     46  27  46 N8        30.29S
$$

IAZ055>058-069>071-079>083-090>094-172100-
   SOUTHWEST IOWA

CITY           SKY/WX    TMP DP  RH WIND       PRES   REMARKS
ATLANTIC *     SUNNY     50  28  43 N6G13     30.26F
AUDUBON *      SUNNY     52  19  28 NW8       30.27F
CLARINDA *     SUNNY     52  30  43 N8        30.29F
COUNCIL BLFS * SUNNY     50  28  43 VRB6G12   30.27S
CRESTON *      SUNNY     50  32  50 NW6G13    30.27S
HARLAN  *      SUNNY     50  27  40 VRB6G15   30.31S
LAMONI         SUNNY     51  31  46 NW7       30.26F
RED OAK *      SUNNY     52  30  43 NW7       30.28S
SHENANDOAH *   SUNNY     50  28  43 E5        30.29F
$$

IAZ047>049-059>061-072>074-084-172100-
   CENTRAL IOWA

CITY           SKY/WX    TMP DP  RH WIND       PRES   REMARKS
AMES           SUNNY     49  30  48 N8        30.27F
ANKENY *       SUNNY     50  32  50 N7G13     30.27F
CHARITON *     SUNNY     48  34  57 VRB6G12   30.27S
DES MOINES     PTSUNNY   51  30  44 N10       30.28S
GRINNELL*      MOSUNNY   46  32  57 NW13      30.27F
KNOXVILLE *    SUNNY     48  32  53 NW8       30.27S
MARSHALLTOWN   SUNNY     45  33  63 NW12      30.27S
NEWTON *       SUNNY     46  32  57 N10G17    30.27F
PELLA *        SUNNY     50  32  50 N7        30.28S
PERRY *          N/A     50  25  37 N10       30.27S
$$

IAZ004>006-015-016-023>025-035-036-172100-
   NORTH CENTRAL IOWA

CITY           SKY/WX    TMP DP  RH WIND       PRES   REMARKS
ALGONA *       SUNNY     41  30  65 N10       30.30R
CLARION *      SUNNY     43  30  61 N10       30.27F
ESTHERVILLE    MOSUNNY   42  31  64 NW9       30.29R
FORT DODGE *   SUNNY     48  28  46 N8        30.28F
MASON CITY     CLOUDY    38  29  70 NW13      30.29F WCI  30
FOREST CITY *  CLOUDY    36  32  87 NW8       30.28F WCI  29
IOWA FALLS *     N/A     45  32  61 N6        30.28S
$$

IAZ007>011-017>019-026>030-037>042-050>054-066-172100-
   NORTHEAST IOWA

CITY           SKY/WX    TMP DP  RH WIND       PRES   REMARKS
CEDAR RAPIDS   MOSUNNY   47  33  58 NW12      30.24F
CHARLES CITY * CLOUDY    37  32  81 NW13G18   30.27F WCI  29
CLINTON *      SUNNY     55  36  47 W9        30.25S
DECORAH *      CLOUDY    41  32  70 NW10      30.24R
DUBUQUE        MOSUNNY   52  37  56 W13G21    30.21S
MONTICELLO *   PTSUNNY   50  36  57 NW12G20   30.23F
OELWEIN *      CLOUDY   N/A N/A N/A N10       30.25S
WATERLOO       MOSUNNY   47  31  53 N8        30.26S
$$

IAZ064-065-067-068-078-172100-
   EAST CENTRAL IOWA

CITY           SKY/WX    TMP DP  RH WIND       PRES   REMARKS
DAVENPORT      SUNNY     53  35  50 W12G17    30.24S
IOWA CITY      MOSUNNY   50  35  56 NW12      30.27S
MT. PLEASANT * SUNNY     52  34  50 W6        30.26S
MUSCATINE *    SUNNY     54  36  50 N8G16     30.25F
QUAD CITIES    MOSUNNY   54  36  50 W5        30.24S
$$

IAZ062-063-075>077-085>089-095>099-172100-
   SOUTHEAST IOWA

CITY           SKY/WX    TMP DP  RH WIND       PRES   REMARKS
BURLINGTON     MOSUNNY   51  36  56 VRB6      30.25F
FAIRFIELD *    SUNNY     50  32  50 NW9G15    30.26F
FORT MADISON * SUNNY     50  36  57 CALM      30.26F
KEOKUK *       PTSUNNY   48  36  61 CALM      30.26S
OSKALOOSA *      N/A     48  32  53 NW7       30.27F
CENTERVILLE *  SUNNY     50  34  53 NW7       30.27F
OTTUMWA        SUNNY     49  33  54 NW14      30.26F
WASHINGTON *   SUNNY     50  34  53 NW10      30.26S
$$

ABBREVIATIONS USED IN REMARKS
   TC - TEMPERATURES IN CELSIUS
  WCI - WIND CHILL INDEX
   HX - HEAT INDEX
  VSB - VISIBILITY
$$




USA.gov is the U.S. government's official web portal to all federal, state and local government web resources and services.